| time (UTC) | temp F | wind direction | speed knots | gust knots | rain 1hr in | rain 24hr in | rain mn in | humidity % | barometer mb |
| 20260903151543 | 84 | 157 | 3.5 | 7.8 | 0.00 | 0.00 | 0.00 | 75 | 1012.7 |
| 20260903151010 | 84 | 185 | 3.5 | 7.8 | 0.00 | 0.00 | 0.00 | 76 | 1012.7 |
| 20260903150551 | 84 | 130 | 2.6 | 7.8 | 0.00 | 0.00 | 0.00 | 76 | 1012.8 |
| 20260903150045 | 84 | 174 | 3.5 | 9.6 | 0.00 | 0.00 | 0.00 | 77 | 1012.8 |
| 20260903145520 | 83 | 186 | 3.5 | 9.6 | 0.00 | 0.00 | 0.00 | 77 | 1012.8 |
| 20260903145101 | 83 | 134 | 2.6 | 7.8 | 0.00 | 0.00 | 0.00 | 78 | 1012.8 |
| 20260903144553 | 83 | 196 | 0.9 | 5.2 | 0.00 | 0.00 | 0.00 | 78 | 1012.7 |
| 20260903144030 | 83 | 182 | 0.9 | 5.2 | 0.00 | 0.00 | 0.00 | 79 | 1012.8 |
| 20260903143507 | 83 | 155 | 1.7 | 7.0 | 0.00 | 0.00 | 0.00 | 80 | 1012.9 |
| 20260903143104 | 82 | 134 | 1.7 | 7.8 | 0.00 | 0.00 | 0.00 | 80 | 1012.9 |
| 20260903142542 | 82 | 159 | 3.5 | 7.8 | 0.00 | 0.00 | 0.00 | 80 | 1012.8 |
| 20260903142019 | 82 | 160 | 1.7 | 7.8 | 0.00 | 0.00 | 0.00 | 81 | 1012.8 |
| 20260903141509 | 82 | 138 | 3.5 | 7.0 | 0.00 | 0.00 | 0.00 | 81 | 1012.8 |
| 20260903141054 | 82 | 153 | 1.7 | 7.8 | 0.00 | 0.00 | 0.00 | 82 | 1012.7 |
| 20260903140527 | 82 | 232 | 0.9 | 6.1 | 0.00 | 0.00 | 0.00 | 83 | 1012.8 |
| 20260903140031 | 81 | 196 | 1.7 | 8.7 | 0.00 | 0.00 | 0.00 | 83 | 1012.8 |
| 20260903135601 | 81 | 251 | 1.7 | 8.7 | 0.00 | 0.00 | 0.00 | 84 | 1012.8 |
| 20260903135038 | 81 | 215 | 0.9 | 6.1 | 0.00 | 0.00 | 0.00 | 84 | 1012.8 |
| 20260903134538 | 81 | 199 | 1.7 | 5.2 | 0.00 | 0.00 | 0.00 | 84 | 1012.8 |
| 20260903134007 | 81 | 159 | 2.6 | 7.0 | 0.00 | 0.00 | 0.00 | 84 | 1012.9 |
| 20260903133548 | 81 | 144 | 1.7 | 7.0 | 0.00 | 0.00 | 0.00 | 85 | 1012.9 |
| 20260903133042 | 80 | 212 | 1.7 | 7.8 | 0.00 | 0.00 | 0.00 | 85 | 1012.8 |
| 20260903132518 | 80 | 150 | 2.6 | 8.7 | 0.00 | 0.00 | 0.00 | 85 | 1012.8 |
| 20260903132059 | 80 | 145 | 4.3 | 8.7 | 0.00 | 0.00 | 0.00 | 85 | 1012.9 |
| 20260903131549 | 80 | 143 | 1.7 | 6.1 | 0.00 | 0.00 | 0.00 | 86 | 1012.9 |
| 20260903131026 | 80 | 139 | 0.9 | 7.0 | 0.00 | 0.00 | 0.00 | 86 | 1012.8 |
| 20260903130502 | 80 | 172 | 2.6 | 7.0 | 0.00 | 0.00 | 0.00 | 86 | 1012.8 |
| 20260903125537 | 80 | 167 | 3.5 | 8.7 | 0.00 | 0.00 | 0.00 | 86 | 1012.8 |
| 20260903125013 | 80 | 126 | 2.6 | 7.0 | 0.00 | 0.00 | 0.00 | 86 | 1012.7 |
| 20260903124523 | 80 | 127 | 2.6 | 7.8 | 0.00 | 0.00 | 0.00 | 86 | 1012.6 |
| 20260903124103 | 80 | 139 | 3.5 | 7.8 | 0.00 | 0.00 | 0.00 | 87 | 1012.6 |
| 20260903123541 | 80 | 161 | 1.7 | 6.1 | 0.00 | 0.00 | 0.00 | 87 | 1012.6 |
| 20260903123038 | 80 | 229 | 1.7 | 6.1 | 0.00 | 0.00 | 0.00 | 87 | 1012.6 |
| 20260903122511 | 80 | 192 | 1.7 | 7.8 | 0.00 | 0.00 | 0.00 | 87 | 1012.5 |
| 20260903122052 | 80 | 198 | 1.7 | 7.8 | 0.00 | 0.00 | 0.00 | 87 | 1012.4 |
| 20260903121545 | 80 | 180 | 1.7 | 8.7 | 0.00 | 0.00 | 0.00 | 87 | 1012.4 |
| 20260903121025 | 79 | 139 | 4.3 | 8.7 | 0.00 | 0.00 | 0.00 | 87 | 1012.4 |
| 20260903120607 | 80 | 144 | 3.5 | 9.6 | 0.00 | 0.00 | 0.00 | 87 | 1012.4 |
| 20260903120057 | 80 | 144 | 3.5 | 9.6 | 0.00 | 0.00 | 0.00 | 87 | 1012.4 |
| 20260903115535 | 80 | 165 | 2.6 | 7.8 | 0.00 | 0.00 | 0.00 | 86 | 1012.3 |
| 20260903115010 | 80 | 203 | 3.5 | 7.0 | 0.00 | 0.00 | 0.00 | 86 | 1012.3 |
| 20260903114527 | 80 | 148 | 1.7 | 6.1 | 0.00 | 0.00 | 0.00 | 86 | 1012.2 |
| 20260903114103 | 80 | 192 | 1.7 | 7.0 | 0.00 | 0.00 | 0.00 | 86 | 1012.2 |
| 20260903113539 | 80 | 140 | 3.5 | 9.6 | 0.00 | 0.00 | 0.00 | 86 | 1012.2 |
| 20260903113032 | 80 | 140 | 4.3 | 11.3 | 0.00 | 0.00 | 0.00 | 86 | 1012.3 |
| 20260903112509 | 80 | 147 | 3.5 | 8.7 | 0.00 | 0.00 | 0.00 | 86 | 1012.4 |
| 20260903112051 | 80 | 144 | 2.6 | 8.7 | 0.00 | 0.00 | 0.00 | 87 | 1012.4 |
| 20260903111544 | 79 | 151 | 4.3 | 8.7 | 0.00 | 0.00 | 0.00 | 87 | 1012.4 |
| 20260903111021 | 79 | 136 | 3.5 | 9.6 | 0.00 | 0.00 | 0.00 | 87 | 1012.4 |
| 20260903110603 | 79 | 138 | 2.6 | 9.6 | 0.00 | 0.00 | 0.00 | 87 | 1012.4 |
| 20260903110104 | 79 | 160 | 1.7 | 5.2 | 0.00 | 0.00 | 0.00 | 87 | 1012.4 |
| 20260903105533 | 79 | 130 | 2.6 | 7.8 | 0.00 | 0.00 | 0.00 | 87 | 1012.3 |
| 20260903105009 | 79 | 144 | 1.7 | 7.0 | 0.00 | 0.00 | 0.00 | 87 | 1012.3 |
| 20260903104503 | 79 | 147 | 3.5 | 9.6 | 0.00 | 0.00 | 0.00 | 87 | 1012.2 |
| 20260903104045 | 79 | 126 | 4.3 | 9.6 | 0.00 | 0.00 | 0.00 | 87 | 1012.1 |
| 20260903103520 | 79 | 177 | 1.7 | 9.6 | 0.00 | 0.00 | 0.00 | 86 | 1012.0 |
| 20260903103034 | 79 | 152 | 4.3 | 9.6 | 0.00 | 0.00 | 0.00 | 86 | 1012.0 |
| 20260903102507 | 79 | 165 | 3.5 | 8.7 | 0.00 | 0.00 | 0.00 | 86 | 1012.0 |
| 20260903102049 | 79 | 146 | 2.6 | 7.8 | 0.00 | 0.00 | 0.00 | 86 | 1012.0 |
| 20260903101545 | 80 | 151 | 3.5 | 7.8 | 0.00 | 0.00 | 0.00 | 86 | 1011.9 |
| 20260903101022 | 79 | 150 | 2.6 | 7.0 | 0.00 | 0.00 | 0.00 | 86 | 1012.0 |
| 20260903100601 | 79 | 154 | 2.6 | 7.0 | 0.00 | 0.00 | 0.00 | 86 | 1011.9 |
| 20260903100056 | 79 | 169 | 2.6 | 7.0 | 0.00 | 0.00 | 0.00 | 86 | 1012.0 |
| 20260903095532 | 79 | 146 | 1.7 | 10.4 | 0.00 | 0.00 | 0.00 | 86 | 1012.1 |
| 20260903095009 | 79 | 150 | 3.5 | 8.7 | 0.00 | 0.00 | 0.00 | 86 | 1012.0 |
| 20260903094503 | 79 | 164 | 1.7 | 7.8 | 0.00 | 0.00 | 0.00 | 86 | 1012.0 |
| 20260903094044 | 80 | 151 | 1.7 | 7.8 | 0.00 | 0.00 | 0.00 | 85 | 1012.0 |
| 20260903093521 | 80 | 210 | 2.6 | 7.0 | 0.00 | 0.00 | 0.00 | 85 | 1012.0 |
| 20260903093037 | 80 | 142 | 2.6 | 7.0 | 0.00 | 0.00 | 0.00 | 85 | 1012.0 |
| 20260903092559 | 80 | 146 | 3.5 | 6.1 | 0.00 | 0.00 | 0.00 | 85 | 1012.2 |
| 20260903092033 | 80 | 145 | 2.6 | 9.6 | 0.00 | 0.00 | 0.00 | 85 | 1012.3 |
| 20260903091527 | 80 | 144 | 1.7 | 7.8 | 0.00 | 0.00 | 0.00 | 85 | 1012.3 |
| 20260903091003 | 80 | 130 | 3.5 | 8.7 | 0.00 | 0.00 | 0.00 | 85 | 1012.4 |
| 20260903090545 | 80 | 159 | 2.6 | 7.8 | 0.00 | 0.00 | 0.00 | 84 | 1012.4 |
| 20260903090039 | 80 | 163 | 2.6 | 7.8 | 0.00 | 0.00 | 0.00 | 84 | 1012.4 |
| 20260903085516 | 80 | 157 | 2.6 | 9.6 | 0.00 | 0.00 | 0.00 | 84 | 1012.3 |
| 20260903085056 | 80 | 117 | 3.5 | 9.6 | 0.00 | 0.00 | 0.00 | 84 | 1012.3 |
| 20260903084553 | 80 | 140 | 3.5 | 9.6 | 0.00 | 0.00 | 0.00 | 84 | 1012.3 |
| 20260903084028 | 80 | 134 | 4.3 | 8.7 | 0.00 | 0.00 | 0.00 | 83 | 1012.3 |
| 20260903083504 | 80 | 187 | 2.6 | 7.8 | 0.00 | 0.00 | 0.00 | 83 | 1012.3 |
| 20260903083105 | 80 | 188 | 2.6 | 7.8 | 0.00 | 0.00 | 0.00 | 82 | 1012.3 |
| 20260903082540 | 80 | 151 | 3.5 | 7.8 | 0.00 | 0.00 | 0.00 | 82 | 1012.4 |
| 20260903082017 | 80 | 150 | 2.6 | 7.8 | 0.00 | 0.00 | 0.00 | 82 | 1012.3 |
| 20260903081514 | 80 | 136 | 3.5 | 7.8 | 0.00 | 0.00 | 0.00 | 82 | 1012.3 |
| 20260903081052 | 80 | 132 | 2.6 | 7.8 | 0.00 | 0.00 | 0.00 | 81 | 1012.4 |
| 20260903080525 | 80 | 142 | 4.3 | 7.8 | 0.00 | 0.00 | 0.00 | 81 | 1012.3 |
| 20260903080038 | 81 | 159 | 2.6 | 6.1 | 0.00 | 0.00 | 0.00 | 80 | 1012.4 |
| 20260903075515 | 81 | 143 | 2.6 | 7.8 | 0.00 | 0.00 | 0.00 | 80 | 1012.3 |
| 20260903075055 | 81 | 138 | 3.5 | 8.7 | 0.00 | 0.00 | 0.00 | 80 | 1012.3 |
| 20260903074508 | 81 | 169 | 3.5 | 8.7 | 0.00 | 0.00 | 0.00 | 79 | 1012.4 |
| 20260903074045 | 81 | 178 | 2.6 | 7.8 | 0.00 | 0.00 | 0.00 | 79 | 1012.4 |
| 20260903073523 | 80 | 147 | 4.3 | 7.8 | 0.00 | 0.00 | 0.00 | 79 | 1012.4 |
| 20260903073017 | 80 | 197 | 2.6 | 4.3 | 0.00 | 0.00 | 0.00 | 79 | 1012.3 |
| 20260903072557 | 80 | 182 | 2.6 | 6.1 | 0.00 | 0.00 | 0.00 | 79 | 1012.4 |
| 20260903072036 | 80 | 150 | 1.7 | 6.1 | 0.00 | 0.00 | 0.00 | 79 | 1012.4 |
| 20260903071530 | 80 | 148 | 1.7 | 7.0 | 0.00 | 0.00 | 0.00 | 79 | 1012.5 |
| 20260903071005 | 80 | 173 | 2.6 | 7.0 | 0.00 | 0.00 | 0.00 | 79 | 1012.6 |
| 20260903070548 | 80 | 159 | 2.6 | 4.3 | 0.00 | 0.00 | 0.00 | 79 | 1012.6 |
| 20260903070100 | 80 | 155 | 2.6 | 6.1 | 0.00 | 0.00 | 0.00 | 80 | 1012.6 |
| 20260903065536 | 80 | 161 | 2.6 | 6.1 | 0.00 | 0.00 | 0.00 | 80 | 1012.6 |
| 20260903065012 | 80 | 137 | 1.7 | 6.1 | 0.00 | 0.00 | 0.00 | 80 | 1012.6 |
| 20260903064508 | 80 | 148 | 2.6 | 6.1 | 0.00 | 0.00 | 0.00 | 80 | 1012.6 |
| 20260903064049 | 80 | 142 | 2.6 | 6.1 | 0.00 | 0.00 | 0.00 | 80 | 1012.7 |
| 20260903063526 | 80 | 162 | 2.6 | 6.1 | 0.00 | 0.00 | 0.00 | 80 | 1012.8 |
| 20260903063021 | 80 | 155 | 0.9 | 5.2 | 0.00 | 0.00 | 0.00 | 80 | 1012.8 |
| 20260903062603 | 80 | 155 | 1.7 | 7.8 | 0.00 | 0.00 | 0.00 | 80 | 1012.9 |
| 20260903062038 | 80 | 161 | 2.6 | 7.8 | 0.00 | 0.00 | 0.00 | 81 | 1012.9 |
| 20260903061534 | 80 | 152 | 1.7 | 7.8 | 0.00 | 0.00 | 0.00 | 81 | 1012.8 |
| 20260903061013 | 80 | 151 | 2.6 | 7.8 | 0.00 | 0.00 | 0.00 | 81 | 1012.9 |
| 20260903060552 | 80 | 142 | 1.7 | 4.3 | 0.00 | 0.00 | 0.00 | 81 | 1012.8 |
| 20260903060003 | 80 | 140 | 1.7 | 4.3 | 0.00 | 0.00 | 0.00 | 80 | 1012.9 |
| 20260903055543 | 80 | 142 | 0.9 | 4.3 | 0.00 | 0.00 | 0.00 | 80 | 1012.9 |
| 20260903055022 | 80 | 150 | 1.7 | 5.2 | 0.00 | 0.00 | 0.00 | 80 | 1012.9 |
| 20260903054522 | 80 | 155 | 1.7 | 5.2 | 0.00 | 0.00 | 0.00 | 80 | 1013.0 |
| 20260903054056 | 80 | 137 | 0.9 | 7.0 | 0.00 | 0.00 | 0.00 | 79 | 1013.0 |
| 20260903053533 | 81 | 134 | 3.5 | 8.7 | 0.00 | 0.00 | 0.00 | 79 | 1013.0 |
| 20260903053028 | 81 | 149 | 3.5 | 8.7 | 0.00 | 0.00 | 0.00 | 78 | 1012.9 |
| 20260903052505 | 81 | 132 | 3.5 | 7.8 | 0.00 | 0.00 | 0.00 | 77 | 1013.0 |
| 20260903052046 | 81 | 133 | 1.7 | 9.6 | 0.00 | 0.00 | 0.00 | 77 | 1013.0 |
| 20260903051542 | 81 | 128 | 6.1 | 9.6 | 0.00 | 0.00 | 0.00 | 76 | 1012.9 |
| 20260903051020 | 82 | 134 | 2.6 | 7.8 | 0.00 | 0.00 | 0.00 | 75 | 1012.9 |
| 20260903050559 | 82 | 169 | 3.5 | 9.6 | 0.00 | 0.00 | 0.00 | 75 | 1012.8 |
| 20260903050009 | 82 | 161 | 4.3 | 9.6 | 0.00 | 0.00 | 0.00 | 74 | 1012.8 |
| 20260903045550 | 82 | 145 | 3.5 | 7.8 | 0.00 | 0.00 | 0.00 | 73 | 1012.8 |
| 20260903045026 | 82 | 129 | 3.5 | 7.8 | 0.00 | 0.00 | 0.00 | 73 | 1012.7 |
| 20260903044541 | 82 | 140 | 2.6 | 6.1 | 0.00 | 0.00 | 0.00 | 73 | 1012.7 |
| 20260903044017 | 82 | 138 | 2.6 | 7.0 | 0.00 | 0.00 | 0.00 | 72 | 1012.7 |
| 20260903043559 | 82 | 148 | 0.9 | 7.0 | 0.00 | 0.00 | 0.00 | 71 | 1012.7 |
| 20260903043054 | 83 | 71 | 0.9 | 4.3 | 0.00 | 0.00 | 0.00 | 71 | 1012.7 |
| 20260903042530 | 83 | 125 | 0.9 | 4.3 | 0.00 | 0.00 | 0.00 | 70 | 1012.7 |
| 20260903042007 | 83 | 136 | 0.9 | 7.8 | 0.00 | 0.00 | 0.00 | 70 | 1012.7 |
| 20260903041524 | 83 | 135 | 1.7 | 11.3 | 0.00 | 0.00 | 0.00 | 70 | 1012.7 |
| 20260903041002 | 83 | 131 | 2.6 | 11.3 | 0.00 | 0.00 | 0.00 | 70 | 1012.8 |
| 20260903040542 | 83 | 98 | 1.7 | 9.6 | 0.00 | 0.00 | 0.00 | 70 | 1012.9 |
| 20260903040100 | 83 | 126 | 5.2 | 8.7 | 0.00 | 0.00 | 0.00 | 70 | 1012.9 |
| 20260903035535 | 84 | 140 | 3.5 | 7.0 | 0.00 | 0.00 | 0.00 | 70 | 1012.9 |
| 20260903035012 | 84 | 137 | 1.7 | 9.6 | 0.00 | 0.00 | 0.00 | 71 | 1012.8 |
| 20260903034510 | 84 | 130 | 3.5 | 9.6 | 0.00 | 0.00 | 0.00 | 70 | 1012.8 |
| 20260903034049 | 84 | 131 | 2.6 | 8.7 | 0.00 | 0.00 | 0.00 | 70 | 1012.8 |
| 20260903033525 | 85 | 76 | 3.5 | 8.7 | 0.00 | 0.00 | 0.00 | 69 | 1012.9 |
| 20260903033039 | 85 | 67 | 2.6 | 7.0 | 0.00 | 0.00 | 0.00 | 68 | 1012.7 |
| 20260903032508 | 85 | 90 | 1.7 | 7.0 | 0.00 | 0.00 | 0.00 | 67 | 1012.8 |
| 20260903032053 | 86 | 63 | 2.6 | 7.0 | 0.00 | 0.00 | 0.00 | 66 | 1012.7 |
| 20260903031556 | 86 | 76 | 0.9 | 7.0 | 0.00 | 0.00 | 0.00 | 65 | 1012.5 |
| 20260903031037 | 86 | 67 | 2.6 | 7.0 | 0.00 | 0.00 | 0.00 | 63 | 1012.4 |
| 20260903030515 | 87 | 76 | 1.7 | 7.0 | 0.00 | 0.00 | 0.00 | 61 | 1012.3 |
| 20260903030029 | 87 | 84 | 0.9 | 8.7 | 0.00 | 0.00 | 0.00 | 60 | 1012.2 |
| 20260903025504 | 87 | 130 | 3.5 | 9.6 | 0.00 | 0.00 | 0.00 | 60 | 1012.1 |
| 20260903025044 | 87 | 131 | 2.6 | 9.6 | 0.00 | 0.00 | 0.00 | 60 | 1012.0 |
| 20260903024555 | 87 | 135 | 2.6 | 7.8 | 0.00 | 0.00 | 0.00 | 60 | 1012.0 |
| 20260903024032 | 86 | 46 | 1.7 | 7.0 | 0.00 | 0.00 | 0.00 | 60 | 1011.9 |
| 20260903023508 | 86 | 146 | 0.9 | 2.6 | 0.00 | 0.00 | 0.00 | 60 | 1011.7 |
| 20260903023020 | 86 | 146 | 0.0 | 0.9 | 0.00 | 0.00 | 0.00 | 60 | 1011.5 |
| 20260903022600 | 87 | 146 | 0.0 | 0.9 | 0.00 | 0.00 | 0.00 | 60 | 1011.3 |
| 20260903022039 | 87 | 146 | 0.0 | 0.0 | 0.00 | 0.00 | 0.00 | 58 | 1011.2 |
| 20260903021548 | 87 | 146 | 0.0 | 0.0 | 0.00 | 0.00 | 0.00 | 58 | 1011.0 |
| 20260903021026 | 87 | 146 | 0.0 | 1.7 | 0.00 | 0.00 | 0.00 | 58 | 1011.0 |
| 20260903020605 | 87 | 146 | 0.0 | 1.7 | 0.00 | 0.00 | 0.00 | 59 | 1010.9 |
| 20260903020011 | 88 | 146 | 0.0 | 0.0 | 0.00 | 0.00 | 0.00 | 58 | 1010.9 |
| 20260903015553 | 88 | 146 | 0.0 | 1.7 | 0.00 | 0.00 | 0.00 | 57 | 1010.9 |
| 20260903015029 | 88 | 146 | 0.0 | 1.7 | 0.00 | 0.00 | 0.00 | 56 | 1010.8 |
| 20260903014552 | 89 | 146 | 0.0 | 0.0 | 0.00 | 0.00 | 0.00 | 57 | 1010.7 |
| 20260903014018 | 89 | 146 | 0.0 | 0.0 | 0.00 | 0.00 | 0.00 | 56 | 1010.7 |
| 20260903013558 | 89 | 146 | 0.0 | 0.0 | 0.00 | 0.00 | 0.00 | 56 | 1010.6 |
| 20260903013007 | 90 | 146 | 0.0 | 0.0 | 0.00 | 0.00 | 0.00 | 55 | 1010.6 |
| 20260903012547 | 90 | 146 | 0.0 | 0.9 | 0.00 | 0.00 | 0.00 | 55 | 1010.6 |
| 20260903012025 | 91 | 146 | 0.0 | 0.9 | 0.00 | 0.00 | 0.00 | 54 | 1010.6 |
| 20260903011536 | 91 | 146 | 0.0 | 0.9 | 0.00 | 0.00 | 0.00 | 54 | 1010.6 |
| 20260903011012 | 92 | 146 | 0.0 | 2.6 | 0.00 | 0.00 | 0.00 | 51 | 1010.7 |
| 20260903010553 | 92 | 146 | 0.9 | 2.6 | 0.00 | 0.00 | 0.00 | 50 | 1010.7 |
| 20260903010105 | 93 | 146 | 0.0 | 0.0 | 0.00 | 0.00 | 0.00 | 50 | 1010.5 |
| 20260903005544 | 93 | 146 | 0.0 | 0.0 | 0.00 | 0.00 | 0.00 | 48 | 1010.5 |
| 20260903005018 | 94 | 146 | 0.0 | 0.0 | 0.00 | 0.00 | 0.00 | 48 | 1010.5 |
| 20260903004536 | 94 | 146 | 0.0 | 0.0 | 0.00 | 0.00 | 0.00 | 47 | 1010.6 |
| 20260903004008 | 94 | 146 | 0.0 | 0.9 | 0.00 | 0.00 | 0.00 | 48 | 1010.6 |
| 20260903003547 | 94 | 146 | 0.0 | 0.9 | 0.00 | 0.00 | 0.00 | 47 | 1010.6 |
| 20260903003058 | 95 | 146 | 0.0 | 0.9 | 0.00 | 0.00 | 0.00 | 48 | 1010.6 |
| 20260903002535 | 95 | 146 | 0.0 | 0.9 | 0.00 | 0.00 | 0.00 | 47 | 1010.6 |
| 20260903002014 | 95 | 146 | 0.0 | 1.7 | 0.00 | 0.00 | 0.00 | 46 | 1010.5 |
| 20260903001521 | 95 | 146 | 0.0 | 2.6 | 0.00 | 0.00 | 0.00 | 46 | 1010.5 |
| 20260903001103 | 95 | 146 | 0.9 | 2.6 | 0.00 | 0.00 | 0.00 | 45 | 1010.5 |
| 20260903000540 | 95 | 146 | 0.9 | 2.6 | 0.00 | 0.00 | 0.00 | 44 | 1010.5 |
| 20260903000051 | 96 | 146 | 0.9 | 2.6 | 0.00 | 0.00 | 0.00 | 44 | 1010.5 |
| 20260902235527 | 96 | 146 | 0.0 | 2.6 | 0.00 | 0.00 | 0.00 | 45 | 1010.5 |
| 20260902235004 | 96 | 146 | 0.9 | 3.5 | 0.00 | 0.00 | 0.00 | 44 | 1010.5 |
| 20260902234516 | 96 | 146 | 1.7 | 3.5 | 0.00 | 0.00 | 0.00 | 43 | 1010.5 |
| 20260902234056 | 96 | 146 | 0.9 | 3.5 | 0.00 | 0.00 | 0.00 | 43 | 1010.5 |
| 20260902233533 | 97 | 146 | 0.9 | 4.3 | 0.00 | 0.00 | 0.00 | 43 | 1010.5 |
| 20260902233045 | 97 | 147 | 0.0 | 4.3 | 0.00 | 0.00 | 0.00 | 42 | 1010.6 |
| 20260902232524 | 97 | 210 | 0.9 | 4.3 | 0.00 | 0.00 | 0.00 | 42 | 1010.6 |
| 20260902232103 | 97 | 199 | 0.0 | 4.3 | 0.00 | 0.00 | 0.00 | 43 | 1010.6 |
| 20260902231515 | 97 | 138 | 0.9 | 4.3 | 0.00 | 0.00 | 0.00 | 43 | 1010.6 |
| 20260902231054 | 98 | 174 | 0.9 | 6.1 | 0.00 | 0.00 | 0.00 | 43 | 1010.6 |
| 20260902230526 | 99 | 140 | 1.7 | 8.7 | 0.00 | 0.00 | 0.00 | 41 | 1010.6 |
| 20260902230039 | 101 | 138 | 1.7 | 6.1 | 0.00 | 0.00 | 0.00 | 39 | 1010.6 |
| 20260902225517 | 101 | 280 | 0.9 | 4.3 | 0.00 | 0.00 | 0.00 | 37 | 1010.3 |
| 20260902225101 | 101 | 245 | 0.9 | 2.6 | 0.00 | 0.00 | 0.00 | 37 | 1010.2 |
| 20260902224504 | 101 | 258 | 0.9 | 3.5 | 0.00 | 0.00 | 0.00 | 37 | 1010.2 |
| 20260902224045 | 101 | 257 | 0.9 | 3.5 | 0.00 | 0.00 | 0.00 | 38 | 1010.1 |
| 20260902223522 | 101 | 329 | 0.9 | 4.3 | 0.00 | 0.00 | 0.00 | 37 | 1010.2 |
| 20260902223034 | 101 | 333 | 0.0 | 2.6 | 0.00 | 0.00 | 0.00 | 37 | 1010.2 |
| 20260902222511 | 100 | 333 | 0.0 | 4.3 | 0.00 | 0.00 | 0.00 | 40 | 1010.3 |
| 20260902222051 | 100 | 333 | 1.7 | 4.3 | 0.00 | 0.00 | 0.00 | 40 | 1010.3 |
| 20260902221602 | 99 | 340 | 0.9 | 4.3 | 0.00 | 0.00 | 0.00 | 40 | 1010.4 |
| 20260902221039 | 99 | 339 | 0.9 | 4.3 | 0.00 | 0.00 | 0.00 | 40 | 1010.4 |
| 20260902220519 | 99 | 321 | 1.7 | 4.3 | 0.00 | 0.00 | 0.00 | 39 | 1010.5 |
| 20260902220027 | 98 | 333 | 1.7 | 4.3 | 0.00 | 0.00 | 0.00 | 43 | 1010.5 |
| 20260902215506 | 98 | 68 | 0.9 | 4.3 | 0.00 | 0.00 | 0.00 | 43 | 1010.7 |
| 20260902215044 | 97 | 292 | 0.9 | 3.5 | 0.00 | 0.00 | 0.00 | 42 | 1010.7 |
| 20260902214556 | 97 | 269 | 1.7 | 2.6 | 0.00 | 0.00 | 0.00 | 42 | 1010.7 |
| 20260902214032 | 97 | 268 | 0.9 | 2.6 | 0.00 | 0.00 | 0.00 | 43 | 1010.7 |
| 20260902213508 | 98 | 268 | 0.9 | 3.5 | 0.00 | 0.00 | 0.00 | 43 | 1010.7 |
| 20260902213023 | 98 | 268 | 0.9 | 4.3 | 0.00 | 0.00 | 0.00 | 41 | 1010.7 |
| 20260902212602 | 100 | 331 | 1.7 | 4.3 | 0.00 | 0.00 | 0.00 | 40 | 1010.8 |
| 20260902212037 | 101 | 244 | 1.7 | 3.5 | 0.00 | 0.00 | 0.00 | 36 | 1010.7 |
| 20260902211556 | 101 | 242 | 0.0 | 4.3 | 0.00 | 0.00 | 0.00 | 36 | 1010.7 |
| 20260902211028 | 101 | 334 | 0.9 | 6.1 | 0.00 | 0.00 | 0.00 | 36 | 1010.7 |
| 20260902210501 | 101 | 265 | 2.6 | 6.1 | 0.00 | 0.00 | 0.00 | 36 | 1010.9 |
| 20260902210012 | 101 | 254 | 1.7 | 6.1 | 0.00 | 0.00 | 0.00 | 35 | 1010.9 |
| 20260902205554 | 100 | 259 | 2.6 | 6.1 | 0.00 | 0.00 | 0.00 | 36 | 1010.9 |
| 20260902205030 | 100 | 253 | 2.6 | 6.1 | 0.00 | 0.00 | 0.00 | 38 | 1010.9 |
| 20260902204543 | 100 | 210 | 1.7 | 5.2 | 0.00 | 0.00 | 0.00 | 38 | 1011.0 |
| 20260902204021 | 100 | 144 | 0.9 | 5.2 | 0.00 | 0.00 | 0.00 | 40 | 1011.1 |
| 20260902203559 | 99 | 238 | 1.7 | 5.2 | 0.00 | 0.00 | 0.00 | 41 | 1011.2 |
| 20260902203004 | 99 | 140 | 1.7 | 4.3 | 0.00 | 0.00 | 0.00 | 40 | 1011.3 |
| 20260902202546 | 99 | 250 | 0.0 | 3.5 | 0.00 | 0.00 | 0.00 | 40 | 1011.3 |
| 20260902202023 | 99 | 189 | 0.9 | 3.5 | 0.00 | 0.00 | 0.00 | 41 | 1011.4 |
| 20260902201537 | 99 | 238 | 1.7 | 4.3 | 0.00 | 0.00 | 0.00 | 43 | 1011.5 |
| 20260902201010 | 98 | 136 | 0.9 | 4.3 | 0.00 | 0.00 | 0.00 | 45 | 1011.5 |
| 20260902200551 | 98 | 263 | 0.9 | 3.5 | 0.00 | 0.00 | 0.00 | 41 | 1011.6 |
| 20260902195543 | 97 | 263 | 0.0 | 3.5 | 0.00 | 0.00 | 0.00 | 46 | 1011.9 |
| 20260902195015 | 96 | 262 | 0.9 | 2.6 | 0.00 | 0.00 | 0.00 | 46 | 1012.0 |
| 20260902194535 | 95 | 360 | 0.0 | 3.5 | 0.00 | 0.00 | 0.00 | 48 | 1012.1 |
| 20260902194004 | 95 | 360 | 0.0 | 3.5 | 0.00 | 0.00 | 0.00 | 48 | 1012.1 |
| 20260902193544 | 96 | 360 | 0.0 | 3.5 | 0.00 | 0.00 | 0.00 | 47 | 1012.2 |
| 20260902193057 | 96 | 360 | 0.0 | 7.0 | 0.00 | 0.00 | 0.00 | 47 | 1012.3 |
| 20260902192532 | 98 | 302 | 2.6 | 7.0 | 0.00 | 0.00 | 0.00 | 44 | 1012.3 |
| 20260902192009 | 99 | 66 | 0.9 | 3.5 | 0.00 | 0.00 | 0.00 | 41 | 1012.3 |
| 20260902191524 | 99 | 66 | 1.7 | 3.5 | 0.00 | 0.00 | 0.00 | 42 | 1012.4 |
| 20260902191102 | 99 | 66 | 0.0 | 4.3 | 0.00 | 0.00 | 0.00 | 42 | 1012.5 |
| 20260902190538 | 99 | 66 | 0.0 | 7.0 | 0.00 | 0.00 | 0.00 | 42 | 1012.6 |
| 20260902190054 | 99 | 63 | 2.6 | 7.0 | 0.00 | 0.00 | 0.00 | 44 | 1012.6 |
| 20260902185526 | 97 | 345 | 1.7 | 6.1 | 0.00 | 0.00 | 0.00 | 44 | 1012.7 |
| 20260902185001 | 96 | 260 | 0.9 | 6.1 | 0.00 | 0.00 | 0.00 | 44 | 1012.8 |
| 20260902184514 | 96 | 301 | 1.7 | 4.3 | 0.00 | 0.00 | 0.00 | 44 | 1012.8 |
| 20260902184054 | 97 | 297 | 1.7 | 4.3 | 0.00 | 0.00 | 0.00 | 44 | 1013.0 |
| 20260902183531 | 97 | 215 | 0.9 | 5.2 | 0.00 | 0.00 | 0.00 | 43 | 1013.1 |
| 20260902183042 | 98 | 259 | 1.7 | 6.1 | 0.00 | 0.00 | 0.00 | 42 | 1013.1 |
| 20260902182521 | 97 | 261 | 2.6 | 6.1 | 0.00 | 0.00 | 0.00 | 43 | 1013.2 |
| 20260902182101 | 97 | 247 | 0.9 | 6.1 | 0.00 | 0.00 | 0.00 | 43 | 1013.3 |
| 20260902181509 | 97 | 138 | 1.7 | 6.1 | 0.00 | 0.00 | 0.00 | 43 | 1013.3 |
| 20260902181050 | 97 | 139 | 0.9 | 6.1 | 0.00 | 0.00 | 0.00 | 44 | 1013.5 |
| 20260902180529 | 97 | 101 | 0.9 | 7.0 | 0.00 | 0.00 | 0.00 | 44 | 1013.7 |
| 20260902180043 | 97 | 135 | 2.6 | 7.0 | 0.00 | 0.00 | 0.00 | 44 | 1013.7 |
| 20260902175518 | 97 | 267 | 0.9 | 6.1 | 0.00 | 0.00 | 0.00 | 45 | 1013.8 |
| 20260902175103 | 97 | 153 | 0.9 | 6.1 | 0.00 | 0.00 | 0.00 | 45 | 1014.0 |
| 20260902174507 | 96 | 271 | 3.5 | 6.1 | 0.00 | 0.00 | 0.00 | 44 | 1014.0 |
| 20260902174047 | 96 | 208 | 0.9 | 6.1 | 0.00 | 0.00 | 0.00 | 45 | 1014.1 |
| 20260902173525 | 96 | 281 | 2.6 | 6.1 | 0.00 | 0.00 | 0.00 | 45 | 1014.2 |
| 20260902173038 | 95 | 258 | 0.9 | 5.2 | 0.00 | 0.00 | 0.00 | 45 | 1014.3 |
| 20260902172511 | 95 | 258 | 2.6 | 7.0 | 0.00 | 0.00 | 0.00 | 45 | 1014.3 |
| 20260902172053 | 95 | 254 | 2.6 | 7.0 | 0.00 | 0.00 | 0.00 | 45 | 1014.5 |
| 20260902171605 | 95 | 259 | 1.7 | 7.0 | 0.00 | 0.00 | 0.00 | 47 | 1014.5 |
| 20260902171042 | 95 | 246 | 0.9 | 6.1 | 0.00 | 0.00 | 0.00 | 47 | 1014.5 |
| 20260902170516 | 95 | 254 | 1.7 | 6.1 | 0.00 | 0.00 | 0.00 | 46 | 1014.6 |
| 20260902170024 | 94 | 209 | 0.0 | 6.1 | 0.00 | 0.00 | 0.00 | 47 | 1014.7 |
| 20260902165605 | 94 | 273 | 2.6 | 6.1 | 0.00 | 0.00 | 0.00 | 48 | 1014.7 |
| 20260902165041 | 94 | 210 | 1.7 | 3.5 | 0.00 | 0.00 | 0.00 | 50 | 1014.7 |
| 20260902164552 | 93 | 263 | 0.9 | 6.1 | 0.00 | 0.00 | 0.00 | 49 | 1014.8 |
| 20260902164029 | 93 | 244 | 1.7 | 6.1 | 0.00 | 0.00 | 0.00 | 50 | 1014.8 |
| 20260902163505 | 93 | 284 | 1.7 | 6.1 | 0.00 | 0.00 | 0.00 | 52 | 1014.9 |
| 20260902163017 | 92 | 331 | 0.0 | 5.2 | 0.00 | 0.00 | 0.00 | 53 | 1015.0 |
| 20260902162557 | 92 | 313 | 1.7 | 4.3 | 0.00 | 0.00 | 0.00 | 52 | 1015.0 |
| 20260902162035 | 92 | 271 | 1.7 | 3.5 | 0.00 | 0.00 | 0.00 | 53 | 1015.0 |
| 20260902161547 | 92 | 271 | 0.9 | 5.2 | 0.00 | 0.00 | 0.00 | 53 | 1015.1 |
| 20260902161025 | 92 | 271 | 0.9 | 5.2 | 0.00 | 0.00 | 0.00 | 54 | 1015.1 |
| 20260902160503 | 91 | 271 | 0.9 | 3.5 | 0.00 | 0.00 | 0.00 | 54 | 1015.1 |
| 20260902160013 | 91 | 271 | 0.9 | 4.3 | 0.00 | 0.00 | 0.00 | 55 | 1015.1 |
| 20260902155556 | 91 | 257 | 1.7 | 7.0 | 0.00 | 0.00 | 0.00 | 55 | 1015.2 |
| 20260902155033 | 90 | 281 | 1.7 | 7.0 | 0.00 | 0.00 | 0.00 | 55 | 1015.1 |
| 20260902154544 | 90 | 192 | 0.9 | 3.5 | 0.00 | 0.00 | 0.00 | 57 | 1015.1 |
| 20260902154020 | 89 | 276 | 0.9 | 3.5 | 0.00 | 0.00 | 0.00 | 57 | 1015.1 |
| 20260902153600 | 89 | 276 | 0.9 | 3.5 | 0.00 | 0.00 | 0.00 | 58 | 1015.2 |
| 20260902153007 | 89 | 218 | 0.9 | 3.5 | 0.00 | 0.00 | 0.00 | 60 | 1015.2 |
| 20260902152547 | 88 | 218 | 0.9 | 3.5 | 0.00 | 0.00 | 0.00 | 59 | 1015.2 |
| 20260902152025 | 88 | 219 | 0.0 | 2.6 | 0.00 | 0.00 | 0.00 | 60 | 1015.2 |